Погода в Национальном парке Зайон

США     37°11′22″N   113°00′22″W
темп.,
°C
ветер,
м/с
пор.,
м/с
влажн.,
%
обл.,
%
осадки,
мм/ч
давл.,
гПа
погр.,
м
4 июля, пн
пн400:00+18юз11270 0.0 101011
03:00+17в22280 0.0 101111
06:00+16всв22300 0.0 101211
09:00+22ююв242515 0.0 1012807
12:00+27ююз59190 0.0 10112543
15:00+29юз710150 0.0 10093233
18:00+29зюз89140 0.0 10083426
21:00+23зюз57230 0.0 101083
5 июля, вт
вт500:00+18ююз11270 0.0 101211
03:00+17юз01340 0.0 101211
06:00+16всв22340 0.0 101311
09:00+22ююв23260 0.0 1013659
12:00+26ююз47290 0.0 10122567
15:00+30юз782158 0.0 10093462
18:00+29ююз572497 0.1 10083147
21:00+25з481621 0.0 1009182
6 июля, ср
ср600:00+18з01190 0.0 101211
03:00+17в22220 0.0 101311
06:00+16св22220 0.0 101311
09:00+23юв12160 0.0 1014637
12:00+27ююз45130 0.0 10132541
15:00+30юз67100 0.0 10103150
18:00+30зюз57110 0.0 10093464
21:00+23з46150 0.0 101164
7 июля, чт
чт700:00+18в11160 0.0 101411
03:00+17всв22160 0.0 101411
06:00+16св221814 0.0 101511
09:00+24ссз01164 0.0 1016476
12:00+28юз47210 0.0 10152248
15:00+31зюз581823 0.0 10123650
18:00+31зюз991613 0.0 10113293
21:00+25зсз58211 0.0 1012118
8 июля, пт
пт800:00+20ссв22270 0.0 101512
03:00+19св11290 0.0 101611
06:00+18св22290 0.0 101611
09:00+25юв11200 0.0 1018415
12:00+30ююз35182 0.0 10161753
15:00+34юз68141 0.0 10133584
18:00+33зюз89120 0.0 10123498
21:00+26зсз47130 0.0 101477